Location: Arcadia
(34.1397°N, 118.0353°W)
Time: 21:31:03
(UTC+00:00)

Cosmos 968 Rocket - Pass Details

Date: 08 September 2024
Orbit: 738 x 766 km, 74.0° (Epoch: 11 October)

Event Time Altitude Azimuth Distance (km) Brightness Sun altitude
Rises 13:01:12 0° 190° (S) 3,211 6.5 -6.9°
Reaches altitude 10° 13:03:34 10° 189° (S) 2,286 5.8 -6.4°
Maximum altitude 13:08:44 73° 105° (ESE) 794 3.8 -5.4°
Drops below altitude 10° 13:13:54 10° 21° (NNE) 2,282 6.4 -4.3°
Sets 13:16:15 0° 20° (NNE) 3,205 7.2 -3.8°
